SCP
-0 -0 -0 -0 0 -0 -0 -0 -0 -0 -0 0 0 0 0 0 0 0 0 0 0 0 0 0 0 0 0 0 0 0 0 0 0 0 0 0 0 0 0 0 0 0 0
0 -0 -0 -0 0 0 0 -0 -0 -0 -0 0 0 0 0 0 0 0 0 0 0 0 0 0 0 0 0 0 0 0 0 0 0 0 0 0 0 0 0 0 0 0 0
0 0 0 0 0 0 0 0 -0 0 0 0 0 0 0 0 0 0 0 0 0 0 0 0 0 0 0 0 0 0 0 0 0 0 0 0 0 0 0 0 0 0 0
0 0 0 0 0 0 0 0 0 0 0 0 0 0 0 0 0 0 0 0 0 0 0 0 0 0 0 0 0 0 0 0 0 0 0 0 0 0 0 0 0 0 0
0 0 0 0 0 0 0 0 0 0 0 0 0 0 0 0 0 0 0 0 0 0 0 0 0 0 0 0 0 0 0 0 0 0 0 0 0 0 0 0 0 0 0
0 0 0 0 0 0 0 0 0 0 0 0 0 0 0 0 0 0 0 0 0 0 0 0 0 0 0 0 0 0 0 0 0 0 0 0 0 0 0 0 0 0 0
0 0 0 0 0 0 0 0 0 0 0 0 0 0 0 0 0 0 0 0 0 0 0 0 0 0 0 0 0 0 0 0 0 0 0 0 0 0 0 0 0 0 0
0 0 0 0 0 0 0 0 0 0 0 0 0 0 0 0 0 0 0 0 0 0 0 0 0 0 0 0 0 0 0 0 0 0 0 0 0 0 0 0 0 0 0
0 0 0 0 0 0 0 0 0 0 0 0 0 0 0 0 0 0 0 0 0 0 0 0 0 0 0 0 0 0 0 0 0 0 0 0 0 0 0 0 0 0 0
0 0 0 0 0 0 0 0 0 0 0 0 0 0 0 0 0 0 0 0 0 0 0 0 0 0 0 0 0 0 0 0 0 0 0 0 0 0 0 0 0 0 0
0 0 0 0 0 0 0 0 0 0 0 0 0 0 0 0 0 0 0 0 0 0 0 0 0 0 0 0 0 0 0 0 0 0 0 0 0 0 0 0 0 0 0
1 0 0 0 0 0 0 0 0 0 0 0 0 0 0 0 0 0 0 0 0 0 0 0 0 0 0 0 0 0 0 0 0 0 0 0 0 0 0 0 0 0 0
1 1 0 0 0 0 0 0 0 0 0 0 0 0 0 0 0 0 0 0 0 0 0 0 0 0 0 0 0 0 0 0 0 0 0 0 0 0 0 0 0 0 0
0 1 1 1 0 0 0 0 0 1 1 0 0 0 0 0 0 0 0 0 0 0 0 0 0 0 0 0 0 0 0 0 0 0 0 0 0 0 0 0 0 0 0
0 0 0 0 1 1 0 1 1 1 1 1 1 0 0 0 0 0 0 0 0 0 0 0 0 0 0 0 0 0 0 0 0 0 0 0 0 0 0 0 0 0 -0
0 0 0 0 0 1 1 0 1 1 1 1 1 0 0 0 0 0 0 0 0 0 0 0 0 0 0 0 0 0 0 0 0 0 0 0 0 0 0 0 0 0 -0
0 0 0 0 0 0 1 1 1 1 1 0 0 0 0 0 0 0 0 0 0 0 0 0 0 0 0 0 0 0 0 0 0 0 0 0 0 0 0 0 0 0 0
0 0 0 0 0 0 0 1 1 0 1 1 1 1 1 0 0 0 0 0 0 0 0 0 0 0 0 0 0 0 0 0 0 0 0 0 0 0 0 0 0 0 0
0 0 0 0 0 0 0 0 0 1 1 1 0 0 0 0 0 0 0 0 0 0 0 0 0 0 0 0 0 0 0 0 0 0 0 0 0 0 0 0 0 0 0
0 0 0 0 0 0 0 0 0 1 1 1 0 0 0 0 0 0 0 0 0 0 0 0 0 0 0 0 0 0 0 0 0 0 0 0 0 0 0 0 0 0 0
0 0 0 0 0 0 0 0 0 0 0 0 0 0 0 0 0 0 0 0 0 0 0 0 0 0 0 0 0 0 0 0 0 0 0 0 0 0 0 0 0 0 0
0 0 0 0 0 0 0 0 0 0 0 0 0 0 0 0 0 0 0 0 0 0 0 0 0 0 0 0 0 0 0 0 0 0 0 0 0 0 0 0 0 0 0
0 0 0 0 0 0 0 0 0 0 0 0 0 0 0 0 0 0 0 0 0 0 0 0 0 0 0 0 0 0 0 0 0 0 0 0 0 0 0 0 0 0 0
0 0 0 0 0 0 0 0 0 0 0 0 0 0 0 0 0 0 0 0 0 0 0 0 0 0 0 0 0 0 0 0 0 0 0 0 0 0 0 0 0 0 0
0 0 0 0 0 0 0 0 0 0 0 0 0 0 0 0 0 0 0 0 0 0 0 0 0 0 0 0 0 0 0 0 0 0 0 0 0 0 0 0 0 0 0
0 0 0 0 0 0 0 0 0 0 0 0 0 0 0 0 0 0 0 0 0 0 0 0 0 0 0 0 0 0 0 0 0 0 0 0 0 0 0 0 0 0 0
Wind_Speed_500mb
26 25 26 22 18 15 15 13 12 4 2 7 14 17 17 19 18 11 14 21 21 21 22 20 9 5 8 10 13 15 16 16 17 18 18 18 18 18 19 19 21 20 22
31 31 29 23 19 15 19 23 20 15 13 14 20 14 16 19 17 18 19 18 24 17 17 19 12 7 8 10 12 11 10 9 9 11 15 17 17 18 17 16 16 14 16
35 36 31 26 21 17 18 27 30 25 16 17 16 17 13 18 15 17 19 21 19 13 17 19 13 15 8 7 5 3 2 5 10 12 14 16 17 16 14 14 15 16 19
24 31 33 27 22 23 24 22 28 30 19 13 12 17 19 18 20 23 23 23 18 17 22 18 15 18 9 4 1 1 4 7 12 14 17 19 20 18 17 17 18 19 23
27 25 28 26 30 29 28 25 25 24 24 19 22 21 27 25 24 25 27 25 23 20 23 15 16 17 9 7 3 4 5 9 11 17 21 23 23 23 23 22 22 25 29
36 36 31 27 32 38 37 29 28 27 25 28 25 29 26 30 29 29 26 22 24 23 21 14 15 13 10 10 10 11 11 14 15 17 23 26 27 25 26 25 25 30 33
39 39 39 35 33 35 44 39 33 33 36 34 29 32 33 33 33 34 33 29 23 22 24 15 13 11 10 14 12 15 18 18 20 21 25 29 34 29 26 27 29 32 34
35 43 40 43 38 39 41 52 45 42 38 40 39 36 37 38 39 42 43 37 30 28 24 19 17 18 18 18 18 18 22 23 23 23 27 33 37 31 28 28 31 34 37
44 42 48 41 46 45 44 47 58 54 47 43 45 39 18 15 21 20 30 40 39 33 29 27 23 22 25 26 25 24 20 22 22 24 28 36 40 34 30 29 30 35 39
48 51 54 52 50 53 52 43 45 53 50 43 46 46 46 50 31 22 17 16 31 35 32 29 31 28 30 32 30 28 26 24 22 23 28 36 43 35 32 29 31 37 37
42 47 47 52 53 56 56 48 47 50 52 50 50 50 53 52 56 53 52 35 32 31 33 34 39 38 35 34 34 32 29 26 26 23 25 38 43 34 30 30 33 36 30
37 43 46 51 49 49 54 55 50 47 51 57 58 56 53 51 51 51 53 53 46 36 30 34 34 33 35 39 36 33 33 31 32 29 25 31 34 34 29 29 34 32 25
39 40 39 44 44 41 39 42 50 55 58 62 62 61 57 56 59 61 56 57 49 44 38 35 35 30 35 40 39 34 31 31 34 33 29 34 26 25 26 27 32 28 19
34 42 44 43 42 37 37 40 44 40 52 60 66 62 63 64 64 62 58 46 43 46 46 42 42 43 39 37 37 38 33 34 33 35 29 31 22 20 19 22 27 23 16
20 28 32 38 48 51 48 45 46 49 41 40 58 63 66 66 63 56 53 52 53 51 54 49 44 45 45 39 32 40 37 39 35 33 30 30 19 17 13 18 24 24 18
23 25 29 35 36 40 49 52 58 54 51 48 48 51 56 61 56 52 56 55 55 54 55 49 41 37 37 36 35 36 42 38 37 32 29 25 16 14 9 14 21 22 18
33 34 34 32 31 31 33 37 38 47 55 53 46 44 46 55 60 61 58 61 62 54 62 61 52 43 38 38 40 35 40 39 36 33 28 21 15 13 9 10 18 20 13
29 38 38 38 38 33 23 27 36 40 43 45 48 44 40 44 49 52 60 60 41 42 46 49 47 46 44 40 38 38 39 39 35 33 29 19 17 17 9 7 12 16 16
28 29 40 41 38 37 35 26 31 39 38 39 41 40 40 38 44 48 47 45 46 48 49 50 45 44 47 44 40 42 41 43 39 37 37 27 21 21 15 9 7 11 15
31 29 32 40 42 38 36 28 32 28 29 34 38 40 40 38 38 37 37 35 35 38 39 42 40 40 47 46 44 41 45 47 43 39 35 35 29 27 24 16 10 9 10
32 27 26 31 40 37 33 30 26 23 33 36 40 41 47 46 39 35 37 34 34 35 39 35 39 39 48 49 47 46 50 45 43 38 38 36 35 30 24 24 19 12 10
32 28 28 27 28 29 28 27 25 21 20 21 22 26 31 32 41 44 38 38 32 39 40 41 40 47 47 46 43 43 50 53 52 45 46 38 29 37 30 28 28 24 16
39 32 28 31 33 29 27 25 25 27 25 21 20 17 16 18 21 32 39 42 40 39 43 45 45 49 51 49 46 50 53 57 58 51 48 42 41 43 48 41 40 34 26
43 42 38 34 35 37 33 33 33 34 31 29 28 30 32 30 27 26 30 30 39 45 52 54 57 60 58 53 53 55 54 56 59 62 54 56 53 49 57 48 51 44 39
49 52 48 46 46 46 43 43 44 43 41 39 33 31 29 33 38 41 43 40 40 37 38 52 67 65 68 68 65 61 60 59 69 75 72 69 59 45 62 67 60 50 47
36 35 42 50 53 53 50 51 52 54 53 47 41 37 35 37 37 42 46 48 61 67 49 50 61 60 65 74 76 77 75 71 69 70 75 73 64 58 62 74 65 53 53
Wind_Direction_500mb
219 203 197 190 185 209 219 224 218 236 307 256 255 274 302 309 300 289 304 320 330 336 346 344 337 302 258 250 262 272 274 281 289 297 308 313 310 305 301 295 297 299 296
240 226 213 209 202 218 238 240 248 247 241 257 249 269 312 308 298 304 315 329 335 341 0 7 10 346 299 283 279 278 284 295 310 324 324 321 321 318 311 313 318 321 310
243 241 233 226 216 229 251 243 236 239 252 265 259 274 296 320 315 320 320 325 333 337 349 350 2 3 335 317 300 288 341 349 341 346 341 339 340 338 334 340 337 333 331
233 239 244 244 235 242 252 255 240 234 238 245 264 272 278 297 309 311 309 318 323 325 334 339 345 358 358 360 14 21 10 9 5 5 359 352 350 346 337 339 338 342 328
234 240 245 255 250 250 249 251 254 247 240 266 278 269 275 280 294 290 311 313 313 309 325 332 343 359 21 27 357 335 355 6 0 8 5 359 351 344 340 341 339 336 336
232 237 242 249 251 250 249 251 241 252 260 277 276 267 277 274 274 274 291 298 305 303 315 311 338 355 354 8 355 344 328 339 346 350 353 354 350 343 338 341 338 338 340
235 239 242 248 249 254 250 252 248 253 256 268 272 280 278 278 274 270 275 278 286 298 307 304 316 309 332 353 349 340 333 326 335 338 343 345 345 343 338 338 339 339 340
250 256 253 245 254 252 250 244 244 246 249 258 261 273 282 286 276 265 268 276 281 281 286 293 295 302 305 313 325 326 337 330 327 330 334 337 339 339 337 336 338 339 338
259 254 263 254 249 254 256 249 244 248 253 257 263 262 280 276 302 308 270 265 273 274 277 279 285 290 296 297 299 308 318 329 332 322 326 332 335 334 333 334 338 337 337
258 261 260 261 254 248 253 258 251 250 252 252 257 259 268 269 276 297 309 289 282 270 274 278 281 287 288 288 290 291 299 311 321 324 326 332 334 331 329 330 336 337 340
268 269 264 255 253 249 247 256 253 255 257 256 255 263 271 270 268 268 283 294 292 288 274 282 289 283 282 281 284 285 287 294 303 308 324 334 330 328 326 328 335 337 345
271 281 281 282 269 260 262 253 250 256 263 261 259 261 261 265 265 268 274 280 291 296 289 276 282 284 287 278 278 282 283 284 290 289 305 327 328 326 326 331 336 341 348
277 275 280 280 283 277 274 268 255 254 258 260 259 258 260 266 269 263 264 270 275 281 279 283 286 288 295 280 268 274 272 275 283 281 291 312 320 326 324 336 341 345 348
290 275 278 278 280 284 280 274 281 273 258 258 255 258 260 264 266 265 259 260 268 269 270 276 283 287 289 278 264 266 267 272 278 277 284 303 311 321 322 343 345 354 3
299 285 283 287 273 275 273 274 268 268 267 275 258 257 259 263 267 270 272 260 260 265 268 271 274 282 285 280 261 260 263 268 271 269 283 293 299 308 324 349 351 7 20
331 318 306 289 277 269 265 266 267 265 262 263 268 261 258 259 265 272 274 277 259 255 263 264 265 271 268 274 274 258 256 256 262 261 283 284 280 293 321 357 1 8 25
335 323 319 319 304 283 269 265 266 266 257 260 261 263 258 258 264 267 272 276 276 251 255 263 264 262 255 269 275 270 241 243 250 257 281 266 262 279 310 356 10 7 17
333 337 324 317 321 314 281 272 274 267 265 268 269 264 259 258 271 275 279 277 266 259 258 263 262 252 254 263 272 266 241 244 246 255 274 247 262 266 276 323 10 12 13
316 330 334 330 319 318 319 291 281 272 269 266 264 261 263 272 282 285 281 274 267 258 258 259 261 248 250 258 261 243 234 240 246 250 266 239 252 254 265 277 337 5 14
309 307 322 331 332 322 319 316 284 276 263 259 261 266 265 264 273 282 274 280 273 255 259 254 255 249 247 254 246 241 237 239 249 251 256 244 241 253 257 262 283 331 350
299 284 298 320 327 329 320 312 307 305 276 271 274 275 269 266 256 263 267 280 273 265 260 258 251 251 243 244 244 245 241 242 247 251 241 240 240 248 253 261 261 274 309
298 285 276 294 311 319 318 319 315 310 314 321 308 289 277 283 274 261 261 269 269 260 260 260 258 249 249 250 247 249 245 240 240 239 233 229 248 262 252 257 256 256 266
291 292 284 274 282 293 301 306 310 312 312 313 314 315 306 295 300 289 274 271 272 258 251 255 258 255 256 253 253 253 255 250 246 245 224 226 241 260 266 255 250 247 253
292 292 287 282 277 276 284 288 291 294 302 301 298 295 293 293 302 303 300 297 278 277 271 258 255 261 261 259 259 257 255 260 253 237 232 239 255 263 244 251 251 243 245
287 284 287 289 283 279 281 284 285 287 286 285 291 293 289 292 288 286 285 287 287 291 293 300 265 254 259 260 254 255 249 247 252 244 242 239 246 256 249 242 246 239 242
300 300 291 283 280 282 274 277 281 281 282 285 282 279 285 292 298 289 285 281 281 280 287 295 294 280 262 258 254 250 249 249 252 247 245 236 243 244 264 249 232 225 235
Wind_Speed_850mb
26 25 26 22 18 15 15 13 12 4 2 7 14 17 17 19 18 11 14 21 21 21 22 20 9 5 8 10 13 15 16 16 17 18 18 18 18 18 19 19 21 20 22
31 31 29 23 19 15 19 23 20 15 13 14 20 14 16 19 17 18 19 18 24 17 17 19 12 7 8 10 12 11 10 9 9 11 15 17 17 18 17 16 16 14 16
35 36 31 26 21 17 18 27 30 25 16 17 16 17 13 18 15 17 19 21 19 13 17 19 13 15 8 7 5 3 2 5 10 12 14 16 17 16 14 14 15 16 19
24 31 33 27 22 23 24 22 28 30 19 13 12 17 19 18 20 23 23 23 18 17 22 18 15 18 9 4 1 1 4 7 12 14 17 19 20 18 17 17 18 19 23
27 25 28 26 30 29 28 25 25 24 24 19 22 21 27 25 24 25 27 25 23 20 23 15 16 17 9 7 3 4 5 9 11 17 21 23 23 23 23 22 22 25 29
36 36 31 27 32 38 37 29 28 27 25 28 25 29 26 30 29 29 26 22 24 23 21 14 15 13 10 10 10 11 11 14 15 17 23 26 27 25 26 25 25 30 33
39 39 39 35 33 35 44 39 33 33 36 34 29 32 33 33 33 34 33 29 23 22 24 15 13 11 10 14 12 15 18 18 20 21 25 29 34 29 26 27 29 32 34
35 43 40 43 38 39 41 52 45 42 38 40 39 36 37 38 39 42 43 37 30 28 24 19 17 18 18 18 18 18 22 23 23 23 27 33 37 31 28 28 31 34 37
44 42 48 41 46 45 44 47 58 54 47 43 45 39 18 15 21 20 30 40 39 33 29 27 23 22 25 26 25 24 20 22 22 24 28 36 40 34 30 29 30 35 39
48 51 54 52 50 53 52 43 45 53 50 43 46 46 46 50 31 22 17 16 31 35 32 29 31 28 30 32 30 28 26 24 22 23 28 36 43 35 32 29 31 37 37
42 47 47 52 53 56 56 48 47 50 52 50 50 50 53 52 56 53 52 35 32 31 33 34 39 38 35 34 34 32 29 26 26 23 25 38 43 34 30 30 33 36 30
37 43 46 51 49 49 54 55 50 47 51 57 58 56 53 51 51 51 53 53 46 36 30 34 34 33 35 39 36 33 33 31 32 29 25 31 34 34 29 29 34 32 25
39 40 39 44 44 41 39 42 50 55 58 62 62 61 57 56 59 61 56 57 49 44 38 35 35 30 35 40 39 34 31 31 34 33 29 34 26 25 26 27 32 28 19
34 42 44 43 42 37 37 40 44 40 52 60 66 62 63 64 64 62 58 46 43 46 46 42 42 43 39 37 37 38 33 34 33 35 29 31 22 20 19 22 27 23 16
20 28 32 38 48 51 48 45 46 49 41 40 58 63 66 66 63 56 53 52 53 51 54 49 44 45 45 39 32 40 37 39 35 33 30 30 19 17 13 18 24 24 18
23 25 29 35 36 40 49 52 58 54 51 48 48 51 56 61 56 52 56 55 55 54 55 49 41 37 37 36 35 36 42 38 37 32 29 25 16 14 9 14 21 22 18
33 34 34 32 31 31 33 37 38 47 55 53 46 44 46 55 60 61 58 61 62 54 62 61 52 43 38 38 40 35 40 39 36 33 28 21 15 13 9 10 18 20 13
29 38 38 38 38 33 23 27 36 40 43 45 48 44 40 44 49 52 60 60 41 42 46 49 47 46 44 40 38 38 39 39 35 33 29 19 17 17 9 7 12 16 16
28 29 40 41 38 37 35 26 31 39 38 39 41 40 40 38 44 48 47 45 46 48 49 50 45 44 47 44 40 42 41 43 39 37 37 27 21 21 15 9 7 11 15
31 29 32 40 42 38 36 28 32 28 29 34 38 40 40 38 38 37 37 35 35 38 39 42 40 40 47 46 44 41 45 47 43 39 35 35 29 27 24 16 10 9 10
32 27 26 31 40 37 33 30 26 23 33 36 40 41 47 46 39 35 37 34 34 35 39 35 39 39 48 49 47 46 50 45 43 38 38 36 35 30 24 24 19 12 10
32 28 28 27 28 29 28 27 25 21 20 21 22 26 31 32 41 44 38 38 32 39 40 41 40 47 47 46 43 43 50 53 52 45 46 38 29 37 30 28 28 24 16
39 32 28 31 33 29 27 25 25 27 25 21 20 17 16 18 21 32 39 42 40 39 43 45 45 49 51 49 46 50 53 57 58 51 48 42 41 43 48 41 40 34 26
43 42 38 34 35 37 33 33 33 34 31 29 28 30 32 30 27 26 30 30 39 45 52 54 57 60 58 53 53 55 54 56 59 62 54 56 53 49 57 48 51 44 39
49 52 48 46 46 46 43 43 44 43 41 39 33 31 29 33 38 41 43 40 40 37 38 52 67 65 68 68 65 61 60 59 69 75 72 69 59 45 62 67 60 50 47
36 35 42 50 53 53 50 51 52 54 53 47 41 37 35 37 37 42 46 48 61 67 49 50 61 60 65 74 76 77 75 71 69 70 75 73 64 58 62 74 65 53 53
Wind_Direction_850mb
219 203 197 190 185 209 219 224 218 236 307 256 255 274 302 309 300 289 304 320 330 336 346 344 337 302 258 250 262 272 274 281 289 297 308 313 310 305 301 295 297 299 296
240 226 213 209 202 218 238 240 248 247 241 257 249 269 312 308 298 304 315 329 335 341 0 7 10 346 299 283 279 278 284 295 310 324 324 321 321 318 311 313 318 321 310
243 241 233 226 216 229 251 243 236 239 252 265 259 274 296 320 315 320 320 325 333 337 349 350 2 3 335 317 300 288 341 349 341 346 341 339 340 338 334 340 337 333 331
233 239 244 244 235 242 252 255 240 234 238 245 264 272 278 297 309 311 309 318 323 325 334 339 345 358 358 360 14 21 10 9 5 5 359 352 350 346 337 339 338 342 328
234 240 245 255 250 250 249 251 254 247 240 266 278 269 275 280 294 290 311 313 313 309 325 332 343 359 21 27 357 335 355 6 0 8 5 359 351 344 340 341 339 336 336
232 237 242 249 251 250 249 251 241 252 260 277 276 267 277 274 274 274 291 298 305 303 315 311 338 355 354 8 355 344 328 339 346 350 353 354 350 343 338 341 338 338 340
235 239 242 248 249 254 250 252 248 253 256 268 272 280 278 278 274 270 275 278 286 298 307 304 316 309 332 353 349 340 333 326 335 338 343 345 345 343 338 338 339 339 340
250 256 253 245 254 252 250 244 244 246 249 258 261 273 282 286 276 265 268 276 281 281 286 293 295 302 305 313 325 326 337 330 327 330 334 337 339 339 337 336 338 339 338
259 254 263 254 249 254 256 249 244 248 253 257 263 262 280 276 302 308 270 265 273 274 277 279 285 290 296 297 299 308 318 329 332 322 326 332 335 334 333 334 338 337 337
258 261 260 261 254 248 253 258 251 250 252 252 257 259 268 269 276 297 309 289 282 270 274 278 281 287 288 288 290 291 299 311 321 324 326 332 334 331 329 330 336 337 340
268 269 264 255 253 249 247 256 253 255 257 256 255 263 271 270 268 268 283 294 292 288 274 282 289 283 282 281 284 285 287 294 303 308 324 334 330 328 326 328 335 337 345
271 281 281 282 269 260 262 253 250 256 263 261 259 261 261 265 265 268 274 280 291 296 289 276 282 284 287 278 278 282 283 284 290 289 305 327 328 326 326 331 336 341 348
277 275 280 280 283 277 274 268 255 254 258 260 259 258 260 266 269 263 264 270 275 281 279 283 286 288 295 280 268 274 272 275 283 281 291 312 320 326 324 336 341 345 348
290 275 278 278 280 284 280 274 281 273 258 258 255 258 260 264 266 265 259 260 268 269 270 276 283 287 289 278 264 266 267 272 278 277 284 303 311 321 322 343 345 354 3
299 285 283 287 273 275 273 274 268 268 267 275 258 257 259 263 267 270 272 260 260 265 268 271 274 282 285 280 261 260 263 268 271 269 283 293 299 308 324 349 351 7 20
331 318 306 289 277 269 265 266 267 265 262 263 268 261 258 259 265 272 274 277 259 255 263 264 265 271 268 274 274 258 256 256 262 261 283 284 280 293 321 357 1 8 25
335 323 319 319 304 283 269 265 266 266 257 260 261 263 258 258 264 267 272 276 276 251 255 263 264 262 255 269 275 270 241 243 250 257 281 266 262 279 310 356 10 7 17
333 337 324 317 321 314 281 272 274 267 265 268 269 264 259 258 271 275 279 277 266 259 258 263 262 252 254 263 272 266 241 244 246 255 274 247 262 266 276 323 10 12 13
316 330 334 330 319 318 319 291 281 272 269 266 264 261 263 272 282 285 281 274 267 258 258 259 261 248 250 258 261 243 234 240 246 250 266 239 252 254 265 277 337 5 14
309 307 322 331 332 322 319 316 284 276 263 259 261 266 265 264 273 282 274 280 273 255 259 254 255 249 247 254 246 241 237 239 249 251 256 244 241 253 257 262 283 331 350
299 284 298 320 327 329 320 312 307 305 276 271 274 275 269 266 256 263 267 280 273 265 260 258 251 251 243 244 244 245 241 242 247 251 241 240 240 248 253 261 261 274 309
298 285 276 294 311 319 318 319 315 310 314 321 308 289 277 283 274 261 261 269 269 260 260 260 258 249 249 250 247 249 245 240 240 239 233 229 248 262 252 257 256 256 266
291 292 284 274 282 293 301 306 310 312 312 313 314 315 306 295 300 289 274 271 272 258 251 255 258 255 256 253 253 253 255 250 246 245 224 226 241 260 266 255 250 247 253
292 292 287 282 277 276 284 288 291 294 302 301 298 295 293 293 302 303 300 297 278 277 271 258 255 261 261 259 259 257 255 260 253 237 232 239 255 263 244 251 251 243 245
287 284 287 289 283 279 281 284 285 287 286 285 291 293 289 292 288 286 285 287 287 291 293 300 265 254 259 260 254 255 249 247 252 244 242 239 246 256 249 242 246 239 242
300 300 291 283 280 282 274 277 281 281 282 285 282 279 285 292 298 289 285 281 281 280 287 295 294 280 262 258 254 250 249 249 252 247 245 236 243 244 264 249 232 225 235